FW1404 Weather Reports


time (UTC)temp
C
wind
direction
speed
KPH
gust
KPH
rain 1hr
cm
rain 24hr
cm
rain mn
cm
humidity
%
barometer
mb
20260507035221 8 34 6.4 14.5 0.23 0.58 0.71 89 1007.8
20260507034724 8 34 9.7 14.5 0.23 0.58 0.71 89 1007.8
20260507034223 8 34 6.4 11.3 0.28 0.58 0.71 88 1007.8
20260507033724 8 40 8.0 11.3 0.33 0.58 0.71 88 1007.8
20260507033223 8 20 6.4 9.7 0.36 0.58 0.71 88 1007.8
20260507033008 8 359 4.8 14.5 0.38 0.58 0.71 88 1007.9
20260507032515 8 6 4.8 14.5 0.41 0.58 0.71 88 1007.8
20260507032003 8 34 8.0 14.5 0.43 0.58 0.69 88 1007.7
20260507031222 8 47 8.0 11.3 0.43 0.58 0.66 88 1007.8
20260507030725 8 358 4.8 14.5 0.43 0.58 0.61 88 1007.8
20260507030510 8 9 6.4 17.7 0.43 0.58 0.56 88 1007.6
20260507025723 8 32 8.0 17.7 0.38 0.18 0.51 88 1007.5
20260507025459 8 41 9.7 17.7 0.38 0.18 0.48 88 1007.6
20260507025008 8 26 6.4 11.3 0.38 0.18 0.46 88 1007.8
20260507024222 8 27 8.0 11.3 0.36 0.18 0.43 87 1007.9
20260507023724 8 3 8.0 14.5 0.33 0.18 0.41 87 1008.0
20260507023222 8 9 8.0 14.5 0.33 0.18 0.36 87 1007.9
20260507022723 8 3 3.2 11.3 0.28 0.18 0.33 87 1007.9
20260507022501 8 9 9.7 16.1 0.28 0.18 0.30 87 1007.8
20260507021758 8 23 6.4 14.5 0.23 0.18 0.23 87 1007.7
20260507021748 8 10 11.3 16.1 0.23 0.18 0.25 87 1007.8
20260507021015 8 13 3.2 17.7 0.20 0.18 0.20 87 1007.7
20260507020508 8 39 11.3 17.7 0.15 0.18 0.15 87 1007.7
20260507015722 8 6 6.4 11.3 0.15 0.05 0.15 87 1007.7
20260507015221 8 25 8.0 11.3 0.13 0.05 0.13 87 1007.6
20260507014721 8 8 9.7 11.3 0.10 0.10 0.10 86 1007.5
20260507014220 8 10 6.4 11.3 0.08 0.15 0.08 86 1007.5
20260507013721 8 36 8.0 14.5 0.05 0.18 0.05 86 1007.4
20260507013221 8 40 11.3 14.5 0.05 0.23 0.05 86 1007.4
20260507012721 8 8 6.4 16.1 0.05 0.28 0.03 86 1007.5
20260507012219 9 10 6.4 16.1 0.03 0.33 0.03 85 1007.3
20260507011721 9 25 9.7 16.1 0.03 0.33 0.03 85 1007.3
20260507011219 9 32 9.7 19.3 0.00 0.33 0.00 85 1007.3
20260507010720 9 18 6.4 19.3 0.00 0.33 0.00 85 1007.2
20260507010219 9 358 12.9 17.7 0.00 0.33 0.00 85 1007.2
20260507005721 9 2 9.7 20.9 0.00 0.36 0.00 85 1007.1
20260507005219 9 18 12.9 20.9 0.00 0.38 0.00 85 1007.1
20260507005009 9 15 12.9 19.3 0.00 0.38 0.00 85 1007.0
20260507004219 9 30 8.0 17.7 0.00 0.38 0.00 84 1007.1
20260507003720 9 37 4.8 14.5 0.00 0.38 0.00 84 1006.8
20260507003510 10 30 11.3 16.1 0.00 0.43 0.00 84 1006.8
20260507002721 10 33 11.3 16.1 0.00 0.51 0.00 84 1006.9
20260507002501 10 32 8.0 14.5 0.00 0.56 0.00 84 1006.9
20260507001720 10 19 11.3 11.3 0.00 0.61 0.00 84 1007.0
20260507001219 10 25 8.0 11.3 0.00 0.61 0.00 84 1007.0
20260507000802 10 64 6.4 9.7 0.00 0.66 0.00 84 1007.0
20260507000745 10 46 4.8 8.0 0.00 0.64 0.00 84 1007.0
20260506235719 10 75 6.4 9.7 0.00 0.66 0.00 84 1007.0
20260506235218 10 73 3.2 9.7 0.00 0.66 0.00 84 1006.8
20260506234721 10 64 6.4 11.3 0.00 0.66 0.00 84 1006.6
20260506234217 10 54 8.0 14.5 0.00 0.69 0.00 84 1006.7
20260506233719 10 50 8.0 14.5 0.00 0.69 0.00 84 1006.6
20260506233217 10 19 9.7 14.5 0.00 0.71 0.00 84 1006.7
20260506232719 10 356 8.0 14.5 0.00 0.71 0.00 84 1006.8
20260506232509 10 19 6.4 16.1 0.00 0.71 0.00 83 1006.9
20260506232000 10 3 9.7 16.1 0.00 0.71 0.00 84 1006.9
20260506231216 10 19 8.0 16.1 0.00 0.71 0.00 83 1006.9
20260506230719 10 347 8.0 16.1 0.00 0.71 0.00 83 1006.9
20260506230453 10 16 6.4 11.3 0.00 0.71 0.00 83 1006.9
20260506225718 10 1 9.7 14.5 0.00 0.71 0.00 83 1006.7
20260506225217 10 37 6.4 14.5 0.00 0.71 0.00 83 1006.7
20260506225000 10 8 6.4 11.3 0.00 0.71 0.00 83 1006.7
20260506224451 10 6 9.7 11.3 0.00 0.71 0.00 83 1006.6
20260506223717 10 22 4.8 11.3 0.00 0.74 0.00 83 1006.5
20260506223217 10 54 8.0 11.3 0.00 0.74 0.00 83 1006.5
20260506222717 10 53 8.0 14.5 0.00 0.74 0.00 83 1006.5
20260506222216 10 56 6.4 14.5 0.00 0.74 0.00 83 1006.5
20260506221717 10 3 4.8 9.7 0.00 0.74 0.00 83 1006.5
20260506221459 11 32 3.2 16.1 0.00 0.74 0.00 83 1006.5
20260506220718 11 39 11.3 16.1 0.00 0.76 0.00 83 1006.5
20260506220218 11 41 4.8 14.5 0.00 0.81 0.00 83 1006.5
20260506215717 11 39 8.0 14.5 0.00 0.84 0.81 83 1006.5
20260506215215 11 29 4.8 11.3 0.00 0.84 0.81 83 1006.5
20260506214717 11 49 9.7 17.7 0.00 0.84 0.81 83 1006.4
20260506214216 11 26 9.7 17.7 0.00 0.84 0.81 83 1006.3
20260506213715 11 64 4.8 9.7 0.00 0.84 0.81 83 1006.4
20260506213215 11 25 6.4 14.5 0.00 0.84 0.81 82 1006.4
20260506212716 11 46 9.7 14.5 0.00 0.84 0.81 82 1006.4
20260506212215 11 44 9.7 11.3 0.00 0.84 0.81 82 1006.2
20260506211715 11 25 4.8 11.3 0.00 0.84 0.81 82 1006.2
20260506211501 11 68 6.4 9.7 0.00 0.84 0.81 82 1006.2
20260506210715 11 46 6.4 17.7 0.00 0.84 0.81 82 1006.3
20260506210212 11 22 9.7 17.7 0.00 0.84 0.81 82 1006.3
20260506205708 11 34 6.4 14.5 0.00 0.84 0.81 82 1006.1
20260506205205 11 29 9.7 19.3 0.00 0.84 0.81 82 1006.2
20260506204949 11 16 11.3 19.3 0.00 0.84 0.81 82 1006.0
20260506204203 11 18 6.4 16.1 0.00 0.84 0.81 82 1006.1
20260506203706 11 15 8.0 16.1 0.00 0.84 0.81 82 1006.1
20260506203257 12 51 9.7 16.1 0.00 0.84 0.81 82 1006.0
20260506203238 11 51 6.4 14.5 0.00 0.84 0.81 82 1006.0
20260506202205 12 49 6.4 16.1 0.00 0.84 0.81 82 1005.9
20260506201705 12 34 8.0 16.1 0.00 0.84 0.81 82 1005.9
20260506201453 12 41 11.3 16.1 0.00 0.84 0.81 82 1005.8
20260506200706 12 30 8.0 9.7 0.00 0.84 0.81 81 1006.0
20260506200206 12 49 3.2 9.7 0.00 0.84 0.81 81 1006.0
20260506195955 12 36 8.0 9.7 0.00 0.84 0.81 81 1006.0
20260506195203 12 20 6.4 8.0 0.00 0.84 0.81 81 1006.0
20260506194706 12 33 4.8 11.3 0.00 0.84 0.81 81 1005.8
20260506194205 12 33 8.0 14.5 0.00 0.84 0.81 81 1005.8
20260506193707 12 44 4.8 14.5 0.00 0.84 0.81 81 1005.8
20260506193204 12 27 6.4 17.7 0.00 0.84 0.81 81 1005.8
20260506192707 12 12 9.7 17.7 0.00 0.84 0.81 80 1005.6
20260506192202 12 8 9.7 19.3 0.00 0.84 0.81 80 1005.6
20260506191955 12 40 11.3 19.3 0.00 0.84 0.81 80 1005.6
20260506191204 12 6 9.7 16.1 0.00 0.84 0.81 80 1005.6
20260506190703 12 29 6.4 17.7 0.00 0.84 0.81 79 1005.7
20260506190205 12 27 11.3 17.7 0.00 0.84 0.81 79 1005.6
20260506185706 12 30 11.3 17.7 0.00 0.84 0.81 79 1005.5
20260506185448 13 18 14.5 17.7 0.00 0.84 0.81 79 1005.5
20260506184705 13 22 8.0 16.1 0.00 0.84 0.81 79 1005.5
20260506184205 13 15 11.3 17.7 0.00 0.84 0.81 78 1005.3
20260506183706 13 3 14.5 19.3 0.00 0.84 0.81 78 1005.3
20260506183205 13 32 9.7 19.3 0.00 0.84 0.81 77 1005.3
20260506182704 13 359 9.7 17.7 0.00 0.84 0.81 77 1005.1
20260506182202 13 44 12.9 17.7 0.00 0.84 0.81 77 1005.1
20260506181648 13 67 14.5 17.7 0.00 0.84 0.81 77 1005.2
20260506181145 14 20 8.0 17.7 0.00 0.84 0.81 77 1005.0
20260506180643 14 8 6.4 19.3 0.00 0.84 0.81 76 1004.9
20260506180143 14 46 12.9 19.3 0.00 0.84 0.81 76 1004.9
20260506175721 15 22 14.5 20.9 0.00 0.84 0.81 76 1004.7
20260506175702 14 1 8.0 20.9 0.00 0.84 0.81 76 1004.8
20260506174711 15 13 12.9 16.1 0.00 0.84 0.81 76 1004.9
20260506174659 15 26 11.3 17.7 0.00 0.84 0.81 76 1004.8
20260506173633 15 351 6.4 16.1 0.00 0.84 0.81 76 1004.9
20260506173132 15 36 9.7 16.1 0.00 0.84 0.81 76 1004.7
20260506172615 15 23 11.3 25.7 0.00 0.84 0.81 75 1004.7
20260506172401 15 356 12.9 25.7 0.00 0.84 0.81 75 1004.7
20260506171616 15 20 16.1 20.9 0.00 0.84 0.81 75 1004.7
20260506171112 15 9 12.9 19.3 0.00 0.84 0.81 75 1004.7
20260506170614 15 43 12.9 24.1 0.00 0.84 0.81 75 1004.7
20260506170111 15 32 17.7 24.1 0.00 0.84 0.81 75 1004.7
20260506165615 15 32 14.5 22.5 0.00 0.84 0.81 75 1004.7
20260506165112 16 13 14.5 22.5 0.00 0.84 0.81 75 1004.6
20260506164615 16 27 9.7 17.7 0.00 0.84 0.81 75 1004.7
20260506164112 16 12 11.3 22.5 0.00 0.84 0.81 75 1004.7
20260506163615 16 32 12.9 22.5 0.00 0.84 0.81 74 1004.6
20260506163349 16 26 4.8 20.9 0.00 0.84 0.81 74 1004.6
20260506162612 16 23 8.0 20.9 0.00 0.84 0.81 74 1004.5
20260506162122 16 10 11.3 22.5 0.00 0.84 0.81 74 1004.5
20260506161853 16 1 17.7 24.1 0.00 0.84 0.81 74 1004.5
20260506161123 17 325 8.0 24.1 0.00 0.84 0.81 74 1004.4
20260506160611 17 18 14.5 20.9 0.00 0.84 0.81 74 1004.5
20260506160314 17 18 17.7 27.4 0.00 0.84 0.81 73 1004.5
20260506160306 17 19 16.1 24.1 0.00 0.84 0.81 73 1004.6
20260506160234 17 344 14.5 27.4 0.00 0.84 0.81 73 1004.6
20260506154612 17 30 12.9 19.3 0.00 0.84 0.81 73 1004.6
20260506154347 17 6 9.7 17.7 0.00 0.84 0.81 73 1004.6
20260506153611 18 18 9.7 16.1 0.00 0.84 0.81 73 1004.6
20260506153109 18 20 9.7 22.5 0.00 0.84 0.81 72 1004.5
20260506152624 18 20 16.1 22.5 0.00 0.84 0.81 72 1004.5
20260506152109 18 339 11.3 20.9 0.00 0.84 0.81 71 1004.6
20260506151612 18 317 4.8 24.1 0.00 0.84 0.81 71 1004.7
20260506151110 18 27 8.0 24.1 0.00 0.84 0.81 71 1004.5
20260506150611 18 36 6.4 16.1 0.00 0.84 0.81 70 1004.5
20260506150107 19 297 6.4 9.7 0.00 0.84 0.81 70 1004.4
20260506145609 19 356 6.4 9.7 0.00 0.84 0.81 69 1004.5
20260506145108 19 314 6.4 9.7 0.00 0.84 0.81 69 1004.6
20260506144610 20 232 6.4 16.1 0.00 0.84 0.81 69 1004.5
20260506144107 20 229 8.0 16.1 0.00 0.84 0.81 68 1004.6
20260506143609 20 286 8.0 20.9 0.00 0.84 0.81 67 1004.5
20260506143107 20 289 9.7 20.9 0.00 0.84 0.81 68 1004.4
20260506142609 20 251 8.0 16.1 0.00 0.84 0.81 69 1004.5
20260506142109 20 269 9.7 22.5 0.00 0.84 0.81 67 1004.5
20260506141611 20 260 4.8 22.5 0.00 0.84 0.81 66 1004.4
20260506141109 20 248 8.0 19.3 0.00 0.84 0.81 65 1004.5
20260506140612 20 344 6.4 30.6 0.00 0.84 0.81 66 1004.4
20260506140112 20 296 8.0 32.2 0.00 0.84 0.81 64 1004.4
20260506135612 20 246 19.3 32.2 0.00 0.84 0.81 65 1004.4
20260506135108 20 279 17.7 27.4 0.00 0.84 0.81 66 1004.5
20260506134612 20 270 8.0 19.3 0.00 0.84 0.81 68 1004.5
20260506134113 20 234 11.3 20.9 0.00 0.84 0.81 68 1004.5
20260506133612 20 273 9.7 20.9 0.00 0.84 0.81 67 1004.5
20260506133347 20 296 11.3 19.3 0.00 0.84 0.81 68 1004.4
20260506132607 20 239 11.3 16.1 0.00 0.84 0.81 68 1004.4
20260506132106 20 280 8.0 20.9 0.00 0.84 0.81 68 1004.5
20260506131606 20 335 8.0 20.9 0.00 0.84 0.81 68 1004.4
20260506131356 20 276 11.3 20.9 0.00 0.84 0.81 66 1004.4
20260506130606 21 256 11.3 20.9 0.00 0.84 0.81 66 1004.4
20260506130106 21 239 12.9 20.9 0.00 0.84 0.81 66 1004.4
20260506125607 20 293 11.3 19.3 0.00 0.84 0.81 67 1004.4
20260506125106 20 313 6.4 27.4 0.00 0.84 0.81 67 1004.4
20260506124606 20 300 17.7 27.4 0.00 0.84 0.81 66 1004.3
20260506124106 20 253 11.3 25.7 0.00 0.84 0.81 65 1004.2
20260506123607 20 263 17.7 25.7 0.00 0.84 0.81 67 1004.3
20260506123106 20 228 14.5 29.0 0.00 0.84 0.81 69 1004.4
20260506122607 20 239 20.9 29.0 0.00 0.84 0.81 69 1004.4
20260506122107 20 248 12.9 22.5 0.00 0.84 0.81 68 1004.4
20260506121608 20 293 11.3 22.5 0.00 0.84 0.81 69 1004.4
20260506121130 20 272 14.5 29.0 0.00 0.84 0.81 63 1004.3
20260506121125 20 242 11.3 29.0 0.00 0.84 0.81 69 1004.5
20260506120104 20 276 14.5 22.5 0.00 0.84 0.81 64 1004.3
20260506115549 20 269 9.7 22.5 0.00 0.84 0.81 67 1004.1
20260506115037 19 189 11.3 24.1 0.00 0.84 0.81 68 1004.2
20260506114533 18 198 14.5 24.1 0.00 0.84 0.81 69 1004.2
20260506114034 18 279 11.3 19.3 0.00 0.84 0.81 70 1004.3
20260506113532 17 221 6.4 24.1 0.00 0.84 0.81 72 1004.3
20260506113033 17 252 14.5 24.1 0.00 0.84 0.81 74 1004.3
20260506112818 17 211 8.0 19.3 0.00 0.84 0.81 75 1004.4
20260506112813 17 270 14.5 24.1 0.00 0.84 0.81 75 1004.3
20260506111510 16 234 11.3 19.3 0.00 0.84 0.81 76 1004.3
20260506111058 16 242 14.5 20.9 0.00 0.84 0.81 75 1004.2
20260506111039 16 232 9.7 19.3 0.00 0.84 0.81 76 1004.3
20260506105956 16 253 11.3 19.3 0.00 0.84 0.81 74 1004.2
20260506105750 16 224 11.3 19.3 0.00 0.84 0.81 73 1004.2
20260506105232 -17 0.0 0.0 0.00 0.84 0.81
20260506104732 16 259 11.3 14.5 0.00 0.84 0.81 73 1004.2
20260506104448 16 259 11.3 24.1 0.00 0.84 0.81 73 1004.2
20260506103722 16 269 11.3 24.1 0.00 0.84 0.81 74 1004.1
20260506103221 16 272 16.1 22.5 0.00 0.84 0.81 74 1004.1
20260506103008 17 222 17.7 22.5 0.00 0.84 0.81 74 1004.0
20260506102221 17 246 12.9 17.7 0.00 0.84 0.81 74 1004.1
20260506101958 17 276 12.9 20.9 0.00 0.84 0.81 73 1004.1
20260506101221 17 253 19.3 20.9 0.00 0.84 0.81 75 1004.0
20260506100721 17 260 9.7 16.1 0.00 0.84 0.81 75 1004.0
20260506100206 17 252 9.7 16.1 0.00 0.84 0.81 75 1003.9
20260506095703 17 258 12.9 22.5 0.00 0.84 0.81 75 1003.7
20260506095205 17 221 14.5 22.5 0.00 0.84 0.81 73 1003.7
20260506094705 17 225 12.9 22.5 0.00 0.84 0.81 72 1003.7
20260506094443 17 238 16.1 22.5 0.00 0.84 0.81 72 1003.5
20260506093704 17 260 14.5 22.5 0.00 0.84 0.81 72 1003.6
20260506093204 17 203 14.5 20.9 0.00 0.84 0.81 74 1003.7
20260506092704 17 259 12.9 20.9 0.00 0.84 0.81 74 1003.4
20260506092452 17 218 11.3 17.7 0.00 0.84 0.81 75 1003.4
20260506091704 17 263 9.7 16.1 0.00 0.84 0.81 75 1003.4
20260506091204 16 228 11.3 22.5 0.00 0.84 0.81 75 1003.2
20260506090703 16 231 16.1 22.5 0.00 0.84 0.81 75 1003.3
20260506090226 17 241 16.1 27.4 0.00 0.84 0.81 75 1003.2
20260506090218 16 220 14.5 27.4 0.00 0.84 0.81 75 1003.4
20260506085204 17 263 12.9 22.5 0.00 0.84 0.81 78 1003.2
20260506084705 16 293 9.7 20.9 0.00 0.84 0.81 79 1003.1
20260506084204 16 194 12.9 20.9 0.00 0.84 0.81 78 1003.2
20260506083703 16 234 9.7 24.1 0.00 0.84 0.81 78 1003.1
20260506083204 16 225 12.9 24.1 0.00 0.84 0.81 78 1003.1
20260506082704 16 204 14.5 20.9 0.00 0.84 0.81 78 1003.1
20260506082203 16 300 12.9 19.3 0.00 0.84 0.81 79 1003.0
20260506081941 16 237 12.9 20.9 0.03 0.84 0.81 79 1003.1
20260506081445 16 211 17.7 24.1 0.03 0.84 0.81 81 1002.9
20260506080942 16 256 14.5 24.1 0.03 0.84 0.81 83 1003.0
20260506080205 15 246 8.0 24.1 0.03 0.84 0.81 85 1003.0
20260506073204 14 217 9.7 19.3 0.03 0.81 0.81 89 1003.3
20260506072946 14 201 9.7 19.3 0.03 0.81 0.81 90 1003.3
20260506072204 13 193 11.3 14.5 0.03 0.81 0.81 90 1003.2
20260506071704 13 194 8.0 14.5 0.00 0.81 0.79 90 1003.1
20260506071205 13 208 9.7 14.5 0.00 0.81 0.79 91 1003.1
20260506070633 13 203 9.7 14.5 0.00 0.81 0.79 91 1003.2
20260506070135 13 215 8.0 11.3 0.00 0.81 0.79 91 1003.4
20260506062134 12 149 3.2 4.8 0.00 0.81 0.79 91 1003.3
20260506061634 12 158 3.2 4.8 0.00 0.81 0.79 91 1003.3
20260506061134 12 155 3.2 4.8 0.00 0.81 0.79 91 1003.3
20260506060634 12 160 3.2 9.7 0.00 0.81 0.79 91 1003.5
20260506060135 12 135 4.8 9.7 0.00 0.81 0.79 91 1003.5
20260506051133 11 139 4.8 6.4 0.00 0.81 0.79 90 1003.4
20260506050909 11 135 1.6 4.8 0.00 0.81 0.79 90 1003.5
20260506050133 11 128 3.2 4.8 0.00 0.81 0.79 90 1003.5
20260506045132 11 120 3.2 6.4 0.00 0.81 0.79 90 1003.6
20260506044633 11 120 3.2 6.4 0.00 0.81 0.79 90 1003.5
20260506044133 11 125 3.2 8.0 0.00 0.81 0.79 90 1003.5
20260506043622 11 128 3.2 8.0 0.00 0.81 0.79 90 1003.6
20260506043117 11 125 0.0 4.8 0.00 0.81 0.79 90 1003.5
20260506042623 11 125 1.6 6.4 0.00 0.81 0.79 90 1003.6
20260506042117 11 125 3.2 6.4 0.00 0.81 0.79 90 1003.6
20260506041618 11 125 0.0 3.2 0.00 0.81 0.79 90 1003.7
20260506041116 11 125 3.2 4.8 0.00 0.81 0.79 90 1003.6
20260506040619 11 125 1.6 4.8 0.00 0.81 0.79 90 1003.7
20260506040114 11 125 0.0 3.2 0.00 0.81 0.79 90 1003.9
20260506035623 11 125 1.6 0.0 0.00 0.81 0.79 90 1003.9